Location: Aranbee
(34.0885°N, 118.2342°W)
Time: 00:39:52
(UTC+00:00)

A-11 Canister half - Pass Details

Date: 03 August 2021
Orbit: 1515 x 1685 km, 47.2° (Epoch: 22 September)

Event Time Altitude Azimuth Distance (km) Brightness Sun altitude
Rises 04:27:45 0° 298° (WNW) 4,871 13.3 -18.0°
Reaches altitude 10° 04:31:07 10° 305° (NW) 3,903 12.4 -18.6°
Maximum altitude 04:40:38 45° 16° (NNE) 2,175 9.9 -20.1°
Enters shadow 04:49:11 14° 84° (E) 3,653 10.6 -21.5°
